Racecast

Murray Park

Difficulty:i +7.5% (4828m, the usual distance here) · 2,258 results · 2,001 athletes

All 4828m 5000m 2500m 3218m

Distances raced here

DistanceDifficultyiResults FirstLast
4828m +7.5% 1,675 2022-09-09 2025-09-26
5000m +3.8% 349 2016-10-12 2019-09-21
2500m +2.0% 207 2019-09-21 2019-09-21
3218m +14.8% 27 2007-08-23 2016-10-12

Best speed ratings all distances

Boys

#AthleteRatingi TimeDistSchoolDate
1 Spencer Bradshaw 141.3 15:08.4 4828m Farmington (MO) 2022-09-09
2 Sam Hansen 138.6 15:26.2 4828m Woods Cross (UT) 2022-09-09
3 Andrew Jensen 138.4 15:27.5 4828m Bountiful (UT) 2022-09-09
4 Andrew Harris 138.0 15:30 4828m Weber (UT) 2022-09-09
5 Landon Hart 137.5 15:33.9 4828m Weber (UT) 2022-09-09
6 Aaron Miller 135.3 15:48.5 4828m Farmington (MO) 2022-09-09
7 Brady Christensen 134.3 15:56.1 4828m Woods Cross (UT) 2022-09-09
8 Paul Scown 134.0 15:58 4828m Stansbury (UT) 2022-09-09
9 Simon Barlow 133.0 16:05 4828m Bountiful (UT) 2022-09-09
10 Jonny Reed 132.7 16:07.8 4828m Davis (UT) (UT) 2022-09-09
11 Isaac Lundberg 132.3 16:10 4828m Davis (UT) (UT) 2022-09-09
12 Bodie Williamson 131.7 16:14.5 4828m Farmington (MO) 2022-09-09
13 Brent Beazer 131.3 16:17.6 4828m Stansbury (UT) 2022-09-09
14 Michael Ballard 131.0 16:20 4828m Copper Hills (UT) 2022-09-09
15 Franklin Monson 130.8 16:21.7 4828m Weber (UT) 2022-09-09
16 Cameron Archer 130.7 16:22.5 4828m Alta (UT) 2022-09-09
17 Bennett Sanders 130.4 16:24.5 4828m Bountiful (UT) 2022-09-09
18 Tekehu (TK) Munanui 129.7 16:29.7 4828m Stansbury (UT) 2022-09-09
19 Mason Aardema 129.7 16:30.1 4828m Weber (UT) 2022-09-09
20 Gabe Hooper 129.4 16:24.9 4828m Viewmont (UT) 2023-09-08
21 Jaxon Allen 129.1 16:34.5 4828m Stansbury (UT) 2022-09-09
22 Tyler Muirbrook 129.1 16:34.8 4828m Farmington (MO) 2022-09-09
23 Spencer Havey 129.0 16:35.1 4828m Weber (UT) 2022-09-09
24 Kohen Reed 128.8 16:36.3 4828m Farmington (MO) 2022-09-09
25 Nathan Thomas 128.6 16:38.4 4828m Spring Creek (NV) 2022-09-09
26 Ian Thompson 128.5 16:38.7 4828m Woods Cross (UT) 2022-09-09
27 Izaac Crosland 128.5 16:38.9 4828m Farmington (MO) 2022-09-09
28 Cooper Walbeck 128.5 16:31.7 4828m Alta (UT) 2023-09-08
29 Brennon Koldewyn 127.8 16:44.3 4828m Woods Cross (UT) 2022-09-09
30 Jaden Gates 127.8 16:44.9 4828m Stansbury (UT) 2022-09-09
31 Vance Langston 127.1 16:50.2 4828m Brighton (MI) 2022-09-09
32 Landon Sturgeon 126.9 16:51.9 4828m Farmington (MO) 2022-09-09
33 Joel Herman 126.8 16:52.2 4828m Spring Creek (NV) 2022-09-09
34 Aidan Neal 126.7 16:53.4 4828m Alta (UT) 2022-09-09
35 Canyon White 126.6 16:54.1 4828m East (UT) 2022-09-09
36 Corbin Riser 126.4 16:55.9 4828m Copper Hills (UT) 2022-09-09
37 Kyle Sharp 126.2 16:57 4828m Riverton (UT) 2022-09-09
38 Ephraim Cieslewicz 126.2 16:57.3 4828m Wasatch (UT) 2022-09-09
39 Carter Bell 126.2 16:57.6 4828m Stansbury (UT) 2022-09-09
40 Kyler Poulson 126.1 16:57.9 4828m Riverton (UT) 2022-09-09
41 Jens Whisenant 126.1 16:58.3 4828m Highland (CA) 2022-09-09
42 Braden Smith 126.0 16:58.7 4828m Copper Hills (UT) 2022-09-09
43 Carson Rasmussen 125.9 16:59.6 4828m Copper Hills (UT) 2022-09-09
44 Shane Grover 125.8 17:00.4 4828m Farmington (MO) 2022-09-09
45 Austin Moore 125.6 17:02.4 4828m Woods Cross (UT) 2022-09-09
46 Jake Bradford 125.2 17:05.6 4828m Spring Creek (NV) 2022-09-09
47 Hyrum Staffanson 125.0 17:06.6 4828m Mountain Crest (UT) 2022-09-09
48 Hayden Hooper 124.9 17:07.7 4828m Bountiful (UT) 2022-09-09
49 Heber Davis 124.9 17:08 4828m Davis (UT) (UT) 2022-09-09
50 Oliver Geddes 124.9 17:08 4828m Stansbury (UT) 2022-09-09
51 Billy Kinsey 124.8 17:08.9 4828m Highland (CA) 2022-09-09
52 Josh Halverson 124.7 17:09.3 4828m Farmington (MO) 2022-09-09
53 Carter Summers 124.7 17:09.4 4828m Brighton (MI) 2022-09-09
54 Brandon Geckler 124.4 17:12.1 4828m Davis (UT) (UT) 2022-09-09
55 Tate Hickman 124.2 17:13.2 4828m Ridgeline (UT) 2022-09-09
56 Jackson Simmons 124.2 17:13.4 4828m Weber (UT) 2022-09-09
57 Talmage Howe 124.1 17:14.7 4828m Brighton (MI) 2022-09-09
58 Jack Reiter 124.0 17:23.8 5000m Freedom (CA) 2019-09-21
59 Austin Probst 123.7 17:18.2 4828m Stansbury (UT) 2022-09-09
60 Hyrum Staker 123.6 17:18.4 4828m Stansbury (UT) 2022-09-09

View all →

Girls

#AthleteRatingi TimeDistSchoolDate
1 Katie Hansen 136.4 18:54.9 4828m Woods Cross (UT) 2022-09-09
2 Kate Giles 135.9 18:59 4828m Wasatch (UT) 2022-09-09
3 Sarah Dye 134.3 19:12.7 4828m Weber (UT) 2022-09-09
4 Eden Burton 133.8 19:16.7 4828m Weber (UT) 2022-09-09
5 Whitley Kidd 133.2 19:22.5 4828m Copper Hills (UT) 2022-09-09
6 Ellie Dangerfield 133.1 19:23.1 4828m Stansbury (UT) 2022-09-09
7 Lia Selander 132.8 19:25.5 4828m Brighton (MI) 2022-09-09
8 Savannah Davies 130.8 19:43.5 4828m Copper Hills (UT) 2022-09-09
9 Nicole Payne 130.3 19:48.5 4828m Stansbury (UT) 2022-09-09
10 Rodarte Gracie 130.0 19:50.9 4828m Weber (UT) 2022-09-09
11 Kenedy Maudsley 129.5 19:55.4 4828m Davis (UT) (UT) 2022-09-09
12 Skye Siddoway 129.4 19:56.2 4828m Farmington (MO) 2022-09-09
13 Erin Allen 129.1 19:59.7 4828m Stansbury (UT) 2022-09-09
14 Keeley Miller 128.3 20:06.4 4828m Davis (UT) (UT) 2022-09-09
15 Hope Edmunds 127.9 20:10.5 4828m Brighton (MI) 2022-09-09
16 Artemesia (Mesia) Evans 127.7 20:12.7 4828m Brighton (MI) 2022-09-09
17 Lucy Allen 127.5 20:14 4828m Wasatch (UT) 2022-09-09
18 Joey Perry 127.4 20:18.9 5000m Winneconne (WI) 2019-09-21
19 Kadence Gholson 127.4 20:15.5 4828m Highland (CA) 2022-09-09
20 Kiely Munson 127.3 20:15.8 4828m Spring Creek (NV) 2022-09-09
21 Mariah George 127.3 20:16.4 4828m Wasatch (UT) 2022-09-09
22 Ella Miller 127.2 20:16.7 4828m Farmington (MO) 2022-09-09
23 Madelyn Busch 126.6 20:23.3 4828m Ridgeline (UT) 2022-09-09
24 Andilusia Manwaring 126.4 20:24.6 4828m Copper Hills (UT) 2022-09-09
25 Madeline Sonntag 126.4 20:24.8 4828m Ridgeline (UT) 2022-09-09
26 Emma Young 126.2 20:26.8 4828m Brighton (MI) 2022-09-09
27 Tai Aston 126.1 20:27.6 4828m Farmington (MO) 2022-09-09
28 Sydnee Walton 126.0 20:28.3 4828m Ridgeline (UT) 2022-09-09
29 Ayla Kazmar 125.9 20:30 4828m Farmington (MO) 2022-09-09
30 Cadence Keyes 125.5 20:34.2 4828m Weber (UT) 2022-09-09
31 Lauren Smith 125.2 20:37.2 4828m Mountain Crest (UT) 2022-09-09
32 Catherine Wald 125.0 20:32.8 4828m Weber (UT) 2023-09-08
33 Joy Shelby 124.9 20:39.4 4828m Weber (UT) 2022-09-09
34 McCall Dalpais 124.8 20:40.7 4828m Weber (UT) 2022-09-09
35 Andenelle Marker 124.6 20:43 4828m Weber (UT) 2022-09-09
36 Eden Roberts 124.5 20:43.6 4828m Bountiful (UT) 2022-09-09
37 Macie Matson 124.4 20:44.2 4828m Riverton (UT) 2022-09-09
38 Kate Larsen 124.4 20:44.7 4828m Davis (UT) (UT) 2022-09-09
39 Avery Parry 123.8 20:50.8 4828m Brighton (MI) 2022-09-09
40 Taylor Miller 123.8 20:51.2 4828m Farmington (MO) 2022-09-09
41 Lillie Randall 123.6 20:52.6 4828m Wasatch (UT) 2022-09-09
42 Skylie Barker 123.6 20:52.8 4828m Copper Hills (UT) 2022-09-09
43 Leah Patterson 123.4 20:58.4 5000m Valley Christian (Oshkosh) (WI) 2019-09-21
44 Macy Verhasselt 123.3 20:59.1 5000m Freedom (CA) 2019-09-21
45 Allie Butte 122.9 21:03.4 5000m Winneconne (WI) 2019-09-21
46 Lydia Sullivan 122.8 21:00.6 4828m Bountiful (UT) 2022-09-09
47 Alexis Bradshaw 122.5 21:03.4 4828m Farmington (MO) 2022-09-09
48 Macey Clark 122.5 21:07.7 5000m Winneconne (WI) 2019-09-21
49 Marjie Richards 122.3 21:05.7 4828m Bountiful (UT) 2022-09-09
50 Brooklyn Bement 122.1 21:08.5 4828m Farmington (MO) 2022-09-09
51 Gabby Johnson 122.0 21:12.3 5000m Freedom (CA) 2019-09-21
52 Leah Larsen 121.5 21:07.8 4828m Stansbury (UT) 2023-09-08
53 Tesha Krull 121.5 21:13.9 4828m Wasatch (UT) 2022-09-09
54 Aubrey DeMordaunt 121.5 21:14.5 4828m Farmington (MO) 2022-09-09
55 Ali Ackerson 121.3 21:16.4 4828m Wasatch (UT) 2022-09-09
56 Macey Reed 121.2 21:17.3 4828m Spring Creek (NV) 2022-09-09
57 Natalie May 120.8 21:21.3 4828m Farmington (MO) 2022-09-09
58 Liz Murphy 120.8 21:25.4 5000m Freedom (CA) 2019-09-21
59 Cambrie Babcock 120.8 21:15.7 4828m Copper Hills (UT) 2023-09-08
60 Faith Marschel 120.7 21:26.4 5000m Kenosha Tremper (WI) 2019-09-21

View all →

Best team performances by rating top-5 average rating, one race, all distances

Boys

#SchoolTop-5 avg DistMeetDate
1 Farmington (MO) 133.3 4828m Spartan Invitational 2022-09-09
2 Weber (UT) 133.0 4828m Spartan Invitational 2022-09-09
3 Woods Cross (UT) 131.0 4828m Spartan Invitational 2022-09-09
4 Stansbury (UT) 130.4 4828m Spartan Invitational 2022-09-09
5 Bountiful (UT) 130.0 4828m Spartan Invitational 2022-09-09
6 Davis (UT) (UT) 127.5 4828m Spartan Invitational 2022-09-09
7 Copper Hills (UT) 125.6 4828m Spartan Invitational 2022-09-09
8 Brighton (MI) 124.6 4828m Spartan Invitational 2022-09-09
9 Riverton (UT) 124.3 4828m Spartan Invitational 2022-09-09
10 Alta (UT) 124.2 4828m Spartan Invitational 2022-09-09
11 Viewmont (UT) 123.9 4828m Spartan Invitational 2023-09-08
12 Spring Creek (NV) 123.4 4828m Spartan Invitational 2022-09-09
13 Wasatch (UT) 122.5 4828m Spartan Invitational 2022-09-09
14 Highland (CA) 121.9 4828m Spartan Invitational 2022-09-09
15 Freedom (CA) 121.6 5000m Kris Greening Invitational 2019-09-21
16 Ridgeline (UT) 118.3 4828m Spartan Invitational 2022-09-09
17 Mountain Crest (UT) 118.3 4828m Spartan Invitational 2022-09-09
18 Kenosha Tremper (WI) 117.6 5000m Kris Greening Invitational 2019-09-21
19 Wautoma (WI) 117.4 5000m Kris Greening Invitational 2019-09-21
20 Kearns (UT) 115.4 4828m Spartan Invitational 2022-09-09
21 Winneconne (WI) 115.1 5000m Kris Greening Invitational 2019-09-21
22 Murray (UT) 114.1 4828m Spartan Invitational 2022-09-09
23 Payson (UT) 113.8 4828m Murray Spartan Invitational 2025-09-26
24 Kewaskum (WI) 113.1 5000m Kris Greening Invitational 2019-09-21
25 West Jordan (UT) 112.9 4828m Spartan Invitational 2023-09-08
26 Campbellsport (WI) 112.0 5000m Kris Greening Invitational 2019-09-21
27 Spanish Fork (UT) 111.7 4828m Spartan Invitational 2023-09-08
28 Ripon (WI) 110.6 5000m Kris Greening Invitational 2019-09-21
29 Waupun (WI) 109.6 5000m Kris Greening Invitational 2019-09-21
30 East (UT) 109.2 4828m Spartan Invitational 2022-09-09
31 West (UT) 107.8 4828m JV Classic at Murray Park 2024-10-24
32 Valley Christian (Oshkosh) (WI) 107.5 5000m Kris Greening Invitational 2019-09-21
33 East Troy (WI) 107.2 5000m Kris Greening Invitational 2019-09-21
34 Mission Oak (CA) 107.1 5000m Porterville vs Mission Oak Dual 2016-10-12
35 Lomira (WI) 106.4 5000m Kris Greening Invitational 2019-09-21
36 Elko (NV) 106.0 4828m Murray Spartan Invitational 2025-09-26
37 Uintah (UT) 105.7 4828m Spartan Invitational 2022-09-09
38 Monache (CA) 105.7 3218m Granite Hills Scrimmage 2007-08-23
39 Hillcrest (ID) 105.3 4828m JV Classic at Murray Park 2024-10-24
40 Cottonwood (UT) 103.3 4828m Spartan Invitational 2023-09-08
41 Waupaca (WI) 102.3 2500m Kris Greening Invitational 2019-09-21
42 Valley Christian (WA) 101.3 2500m Kris Greening Invitational 2019-09-21
43 Olympus (UT) 100.7 4828m JV Classic at Murray Park 2024-10-24
44 Tintic (UT) 99.7 4828m Spartan Invitational 2022-09-09
45 Vanguard Academy (UT) 99.0 4828m Murray Spartan Invitational 2025-09-26
46 Westfield (NJ) 96.8 2500m Kris Greening Invitational 2019-09-21
47 Mayville (WI) 94.6 5000m Kris Greening Invitational 2019-09-21
48 Lomira ms (WI) 78.5 2500m Kris Greening Invitational 2019-09-21

View all →

Girls

#SchoolTop-5 avg DistMeetDate
1 Weber (UT) 129.7 4828m Spartan Invitational 2022-09-09
2 Brighton (MI) 127.7 4828m Spartan Invitational 2022-09-09
3 Wasatch (UT) 127.2 4828m Spartan Invitational 2022-09-09
4 Farmington (MO) 126.5 4828m Spartan Invitational 2022-09-09
5 Copper Hills (UT) 126.5 4828m Spartan Invitational 2022-09-09
6 Stansbury (UT) 126.4 4828m Spartan Invitational 2022-09-09
7 Ridgeline (UT) 122.9 4828m Spartan Invitational 2022-09-09
8 Davis (UT) (UT) 122.2 4828m Spartan Invitational 2022-09-09
9 Winneconne (WI) 121.1 5000m Kris Greening Invitational 2019-09-21
10 Freedom (CA) 120.8 5000m Kris Greening Invitational 2019-09-21
11 Bountiful (UT) 119.8 4828m Spartan Invitational 2022-09-09
12 Riverton (UT) 118.6 4828m Spartan Invitational 2022-09-09
13 Woods Cross (UT) 118.4 4828m Spartan Invitational 2022-09-09
14 Viewmont (UT) 116.6 4828m Spartan Invitational 2023-09-08
15 Highland (CA) 116.4 4828m Spartan Invitational 2022-09-09
16 Kenosha Tremper (WI) 116.4 5000m Kris Greening Invitational 2019-09-21
17 Mountain Crest (UT) 116.0 4828m Spartan Invitational 2022-09-09
18 Spring Creek (NV) 115.5 4828m Spartan Invitational 2022-09-09
19 Wautoma (WI) 113.3 5000m Kris Greening Invitational 2019-09-21
20 Kewaskum (WI) 109.9 5000m Kris Greening Invitational 2019-09-21
21 Lomira (WI) 109.7 5000m Kris Greening Invitational 2019-09-21
22 Mission Oak (CA) 109.5 5000m Porterville vs Mission Oak Dual 2016-10-12
23 East (UT) 109.2 4828m Spartan Invitational 2022-09-09
24 Alta (UT) 109.1 4828m Spartan Invitational 2023-09-08
25 East Troy (WI) 107.6 5000m Kris Greening Invitational 2019-09-21
26 Monache (CA) 106.9 3218m Granite Hills Scrimmage 2007-08-23
27 Payson (UT) 106.7 4828m Murray Spartan Invitational 2025-09-26
28 Ripon (WI) 106.6 5000m Kris Greening Invitational 2019-09-21
29 West (UT) 105.3 4828m JV Classic at Murray Park 2024-10-24
30 Westfield (NJ) 105.1 2500m Kris Greening Invitational 2019-09-21
31 Lomira ms (WI) 104.5 2500m Kris Greening Invitational 2019-09-21
32 Spanish Fork (UT) 104.3 4828m Spartan Invitational 2023-09-08
33 Mayville (WI) 103.9 5000m Kris Greening Invitational 2019-09-21
34 Hillcrest (ID) 101.1 4828m JV Classic at Murray Park 2024-10-24
35 Campbellsport (WI) 101.1 5000m Kris Greening Invitational 2019-09-21
36 Olympus (UT) 100.7 4828m JV Classic at Murray Park 2024-10-24
37 Murray (UT) 98.7 4828m Murray Spartan Invitational 2025-09-26
38 Elko (NV) 96.0 4828m Murray Spartan Invitational 2025-09-26
39 Vanguard Academy (UT) 95.6 4828m Murray Spartan Invitational 2025-09-26
40 Waupaca (WI) 95.4 2500m Kris Greening Invitational 2019-09-21
41 Uintah (UT) 95.2 4828m Spartan Invitational 2023-09-08
42 May (TX) 92.3 2500m Kris Greening Invitational 2019-09-21
43 Tintic (UT) 87.5 4828m Spartan Invitational 2022-09-09
44 Cottonwood (UT) 76.8 4828m Spartan Invitational 2023-09-08

View all →

Meets held here all distances

MeetLast heldDistanceResults
Murray Spartan Invitational 2025-09-26 4828 95
JV Classic at Murray Park 2024-10-24 4828 156
Spartan Invitational 2023-09-08 4828 563
Spartan Invitational 2022-09-09 4828 861
Kris Greening Invitational 2019-09-21 2500, 5000 533
Porterville vs Mission Oak Dual 2016-10-12 3218, 5000 31
Granite Hills Scrimmage 2007-08-23 3218 19

View all →